FW1218 Weather Reports


Display with metric or nautical units.
time (UTC)temp
F
wind
direction
speed
MPH
gust
MPH
rain 1hr
in
rain 24hr
in
rain mn
in
humidity
%
barometer
mb
20260510033006 53 117 1.0 2.0 0.00 0.11 0.11 93 1010.2
20260510031509 53 134 0.0 2.0 0.00 0.11 0.11 93 1010.2
20260510030005 54 122 0.0 0.0 0.00 0.11 0.11 93 1010.2
20260510024506 54 120 0.0 3.0 0.00 0.11 0.11 93 1010.2
20260510023007 54 129 0.0 2.0 0.00 0.11 0.11 93 1010.0
20260510021512 53 110 0.0 0.0 0.00 0.11 0.11 92 1009.9
20260510020003 53 125 0.0 0.0 0.00 0.11 0.11 92 1009.9
20260510014506 53 96 0.0 0.0 0.00 0.11 0.11 92 1009.7
20260510013102 54 90 0.0 0.0 0.00 0.11 0.11 91 1009.5
20260510011500 54 73 0.0 0.0 0.00 0.11 0.11 91 1009.4
20260510010109 54 73 0.0 0.0 0.00 0.11 0.11 90 1009.2
20260510004602 54 69 0.0 1.0 0.00 0.11 0.11 90 1009.1
20260510003059 55 105 0.0 0.0 0.00 0.11 0.11 88 1009.0
20260510001559 55 141 0.0 0.0 0.00 0.11 0.11 86 1008.8
20260509234558 58 141 0.0 1.0 0.00 0.11 0.11 81 1008.6
20260509233058 60 103 0.0 2.0 0.00 0.11 0.11 78 1008.6
20260509231556 62 108 0.0 2.0 0.00 0.11 0.11 75 1008.5
20260509230057 63 114 0.0 2.0 0.00 0.11 0.11 75 1008.5
20260509224556 63 120 0.0 1.0 0.00 0.11 0.11 73 1008.6
20260509223059 63 115 0.0 2.0 0.00 0.11 0.11 72 1008.6
20260509221554 63 125 0.0 4.0 0.00 0.11 0.11 73 1008.6
20260509220052 63 117 0.0 1.0 0.00 0.11 0.11 73 1008.7
20260509214609 63 93 0.0 1.0 0.00 0.11 0.11 75 1008.8
20260509213050 62 113 0.0 3.0 0.00 0.11 0.11 77 1008.9
20260509211549 60 44 0.0 2.0 0.00 0.11 0.11 77 1009.1
20260509210052 61 51 0.0 2.0 0.00 0.11 0.11 76 1009.3
20260509204548 61 92 0.0 2.0 0.00 0.11 0.11 78 1008.9
20260509203059 61 50 0.0 1.0 0.00 0.11 0.11 77 1008.9
20260509201547 62 51 1.0 3.0 0.00 0.11 0.11 76 1009.0
20260509200045 63 39 0.0 1.0 0.00 0.11 0.11 70 1009.0
20260509194548 63 322 0.0 4.0 0.00 0.11 0.11 69 1009.3
20260509193041 63 303 1.0 5.0 0.00 0.11 0.11 71 1009.5
20260509191553 63 176 0.0 4.0 0.00 0.11 0.11 72 1009.7
20260509190036 63 216 0.0 2.0 0.00 0.11 0.11 80 1009.7
20260509184544 61 311 0.0 5.0 0.00 0.11 0.11 80 1010.0
20260509183043 60 251 0.0 3.0 0.00 0.11 0.11 87 1010.2
20260509181526 57 101 0.0 3.0 0.00 0.11 0.11 90 1010.5
20260509180026 56 284 0.0 2.0 0.00 0.11 0.11 91 1010.6
20260509174526 55 94 0.0 1.0 0.00 0.11 0.11 92 1010.6
20260509173025 55 127 0.0 1.0 0.00 0.11 0.11 89 1010.5
20260509171526 56 124 0.0 1.0 0.00 0.11 0.11 88 1010.8
20260509170024 56 285 0.0 0.0 0.00 0.11 0.11 88 1010.8
20260509164524 55 283 0.0 3.0 0.01 0.11 0.11 86 1010.8
20260509163033 55 230 0.0 4.0 0.01 0.11 0.11 87 1011.2
20260509161523 55 150 0.0 1.0 0.04 0.11 0.11 91 1011.2
20260509160022 54 217 0.0 0.0 0.08 0.11 0.11 92 1011.0
20260509154524 53 46 0.0 0.0 0.09 0.10 0.10 92 1010.7
20260509153023 52 46 0.0 2.0 0.10 0.10 0.10 90 1010.9
20260509151518 53 295 0.0 1.0 0.07 0.07 0.07 86 1011.4
20260509150017 54 295 0.0 1.0 0.03 0.03 0.03 83 1011.3
20260509144519 55 302 0.0 3.0 0.01 0.01 0.01 77 1011.7
20260509143015 56 266 1.0 3.0 0.00 0.00 0.00 74 1011.7
20260509141514 57 276 0.0 3.0 0.00 0.00 0.00 72 1011.7
20260509140014 57 256 0.0 4.0 0.00 0.00 0.00 70 1011.4
20260509134509 56 274 0.0 2.0 0.00 0.00 0.00 70 1010.9
20260509133008 55 290 1.0 3.0 0.00 0.00 0.00 73 1011.1
20260509131504 55 14 0.0 2.0 0.00 0.00 0.00 72 1010.8
20260509130006 54 34 0.0 1.0 0.00 0.00 0.00 74 1010.8
20260509124503 54 280 0.0 1.0 0.00 0.00 0.00 74 1010.8
20260509123004 55 247 0.0 0.0 0.00 0.00 0.00 74 1010.8
20260509121505 55 265 0.0 1.0 0.00 0.00 0.00 71 1010.9
20260509120002 55 221 0.0 2.0 0.00 0.00 0.00 70 1010.8
20260509114502 54 303 0.0 0.0 0.00 0.00 0.00 73 1010.6
20260509113002 55 282 0.0 2.0 0.00 0.00 0.00 66 1010.3
20260509111600 54 245 0.0 4.0 0.00 0.00 0.00 68 1010.3
20260509110109 54 276 1.0 3.0 0.00 0.00 0.00 69 1010.3
20260509104600 53 258 0.0 1.0 0.00 0.00 0.00 72 1010.0
20260509103104 54 214 0.0 2.0 0.00 0.00 0.00 72 1010.2
20260509101613 54 265 0.0 4.0 0.00 0.00 0.00 69 1010.1
20260509100058 54 312 2.0 5.0 0.00 0.00 0.00 68 1009.9
20260509094657 54 262 0.0 5.0 0.00 0.00 0.00 69 1009.9
20260509093056 54 262 0.0 4.0 0.00 0.00 0.00 71 1010.0
20260509091601 54 279 0.0 4.0 0.00 0.00 0.00 71 1010.1
20260509090100 53 283 1.0 5.0 0.00 0.00 0.00 75 1010.3
20260509084555 53 107 0.0 0.0 0.00 0.00 0.00 74 1010.4
20260509083057 53 213 0.0 1.0 0.00 0.00 0.00 74 1010.6
20260509081549 53 322 0.0 0.0 0.00 0.00 0.00 73 1010.6
20260509080053 54 280 0.0 0.0 0.00 0.00 0.00 72 1010.6
20260509074552 54 280 0.0 3.0 0.00 0.00 0.00 70 1010.5
20260509073050 54 318 0.0 1.0 0.00 0.00 0.00 73 1010.7
20260509071547 52 123 0.0 0.0 0.00 0.00 0.00 78 1010.7
20260509070045 53 124 0.0 0.0 0.00 0.00 0.00 78 1010.8
20260509064543 53 124 0.0 0.0 0.00 0.00 0.00 77 1010.8
20260509063041 53 124 0.0 0.0 0.00 0.00 0.00 77 1010.8
20260509061543 54 124 0.0 0.0 0.00 0.00 0.00 75 1010.7
20260509060047 54 132 0.0 1.0 0.00 0.00 0.00 73 1010.8
20260509054536 54 124 0.0 2.0 0.00 0.00 0.00 71 1010.9
20260509053054 55 152 0.0 3.0 0.00 0.00 0.00 69 1011.4
20260509051541 54 175 0.0 1.0 0.00 0.00 0.00 68 1011.7
20260509050031 54 53 0.0 0.0 0.00 0.00 0.00 66 1011.7
20260509044529 55 54 0.0 1.0 0.00 0.00 0.00 64 1011.7
20260509043031 55 44 0.0 0.0 0.00 0.00 0.00 66 1011.6
20260509041526 55 43 0.0 0.0 0.00 0.00 0.00 67 1011.7
20260509040028 55 21 0.0 0.0 0.00 0.00 0.00 68 1011.9
20260509034521 55 4 1.0 1.0 0.00 0.00 0.00 65 1011.9